Flag Weather past 2 weeks in Kelowna, British Columbia, Canada

Now
43 °F

Passing clouds.


Feels Like: 38 °F
Forecast: 34 / 45 °F
Wind: 8 mph from South

Location: Kelowna Airport

Current Time: Nov 22, 2014 at 4:08:33 PM

Latest Report: Nov 22, 2014 at 3:00 PM


Visibility: 9 mi

Pressure: 29.73 "Hg

Humidity: 71%

Dew point: 34 °F

Location of KelownaLocation

Historic Weather in Kelowna — Graph

°F

Kelowna temperature yesterday

Maximum temperature yesterday: 39 °F (at 12:00 AM)
Minimum temperature yesterday: 32 °F (at 8:02 PM)
Average temperature yesterday: 36 °F

Past Weeks' High & Low Weather Summary

 TemperatureHumidityPressure
High57 °F (Nov 7, 3:00 PM)100% (Nov 21, 8:02 PM)30.79 "Hg (Nov 21, 8:02 PM)
Low9 °F (Nov 13, 4:00 AM)30% (Nov 11, 2:00 PM)29.34 "Hg (Nov 21, 11:00 PM)
Average29 °F73%30.28 "Hg
* Reported Nov 7 3:00 PM — Nov 22 3:00 PM, Kelowna, Weather by CustomWeather, © 2014

Note: Actual official high and low records may vary slightly from our data, if they occured in-between our weather recording intervals... More about our weather records

Advertising

Kelowna weather history for previous 24 hours

 ConditionsComfort  
Time TempWeatherWind HumidityBarometerVisibility
3:00 PM
Nov 22
43 °FPassing clouds.8 mph71%29.73 "Hg9 mi
2:00 PM45 °FScattered clouds.6 mph66%29.70 "Hg9 mi
1:00 PM45 °FPartly sunny.3 mph66%29.69 "Hg9 mi
12:00 PM43 °FPartly sunny.6 mph71%29.67 "Hg9 mi
11:00 AM43 °FSunny.6 mph71%29.65 "Hg9 mi
10:00 AM39 °FPartly sunny.5 mph87%29.62 "Hg9 mi
9:00 AM39 °FMostly cloudy.3 mph81%29.59 "Hg9 mi
8:00 AM37 °FOvercast.2 mph81%29.55 "Hg9 mi
7:00 AM34 °FMostly cloudy.5 mph93%29.51 "Hg9 mi
6:00 AM36 °FOvercast.7 mph93%29.48 "Hg9 mi
5:00 AM36 °FOvercast.6 mph93%29.44 "Hg9 mi
4:00 AM34 °FPassing clouds.5 mph93%29.40 "Hg9 mi
3:00 AM37 °FClear.6 mph87%29.39 "Hg9 mi
2:00 AM37 °FOvercast.13 mph87%29.37 "Hg9 mi
1:00 AM34 °FOvercast.3 mph93%29.37 "Hg9 mi
12:52 AM34 °FMostly cloudy.2 mph100%29.36 "Hg9 mi
12:00 AM34 °FOvercast.3 mph100%29.34 "Hg9 mi
11:00 PM
Nov 21
34 °FLight rain. Mostly cloudy.No wind93%29.34 "Hg9 mi
10:04 PM34 °FLight rain. Overcast.No wind93%29.36 "Hg9 mi
9:53 PM34 °FMostly cloudy.No wind93%29.36 "Hg9 mi
9:04 PM34 °FLight rain. Fog.No wind100%29.39 "Hg6 mi
8:55 PM34 °FLight rain. Fog.No wind93%29.39 "Hg3 mi
8:02 PM32 °FLight snow. Ice fog.3 mph100%29.41 "Hg1 mi
7:01 PM34 °FLight snow. Overcast.2 mph93%29.46 "Hg2 mi
6:00 PM36 °FLight rain. Overcast.3 mph87%29.50 "Hg7 mi
5:00 PM36 °FPartly cloudy.2 mph81%29.53 "Hg9 mi
4:00 PM37 °FMostly cloudy.5 mph75%29.60 "Hg9 mi
Weather by CustomWeather, © 2014

See weather overviewHow to use our weather pages